Last 30 Days

AM-Roundhouse Top 7880'

Daily Data | America/Los_Angeles
as of 8/18/22 7:00 PM PDT
Date Daily Max Temp (°F) Daily Min Temp (°F) Wind Spd (mph) Daily Max Wind (mph) Max RH (%) Min RH (%) Wet Bulb (°F) MinBV Day (V)
8/17/22 76.8 53.4 2.7 20.0 93 25 52.2 13.5
8/16/22 78.7 61.5 2.5 15.1 35 19 50.0 13.5
8/15/22 76.5 55.9 3.3 20.6 29 9 46.4 13.5
8/14/22 72.7 56.7 4.3 22.5 32 12 44.9 13.5
8/13/22 72.0 55.8 5.4 19.0 32 13 44.3 13.5
8/12/22 69.8 54.1 5.2 21.5 58 23 47.2 13.5
8/11/22 68.7 55.8 6.3 24.1 64 33 50.1 13.5
8/10/22 67.1 54.9 7.3 26.3 63 37 49.3 13.5
8/9/22 70.7 55.3 5.6 24.7 69 37 51.6 13.5
8/8/22 73.8 61.1 4.1 20.3 69 34 53.2 13.5
8/7/22 74.5 57.4 4.5 25.1 75 36 54.8 13.5
8/6/22 69.8 52.5 5.1 21.3 95 41 55.0 13.5
8/5/22 65.4 53.9 3.5 21.6 97 57 55.0 13.5
8/4/22 77.1 60.7 4.3 27.7 60 38 55.9 13.5
8/3/22 76.7 56.3 3.7 19.5 77 36 56.1 13.5
8/2/22 73.4 55.5 4.0 20.8 76 45 54.7 13.5
8/1/22 66.6 56.8 9.1 23.1 77 50 53.4 13.5
7/31/22 76.7 60.2 7.8 24.1 71 35 56.4 13.5
7/30/22 83.5 64.8 3.3 20.3 60 17 54.7 13.5
7/29/22 83.0 64.5 2.4 15.2 50 19 54.2 13.5
7/28/22 83.9 62.5 2.9 14.9 53 17 54.5 13.5
7/27/22 81.7 63.8 3.5 18.2 56 26 55.7 13.5
7/26/22 75.2 62.2 4.6 17.6 55 14 50.4 13.5
7/25/22 79.7 62.0 5.4 24.4 49 19 50.8 13.5
7/24/22 77.2 57.9 4.3 23.1 36 18 47.9 13.5
7/23/22 72.8 57.7 3.9 22.8 28 13 45.1 13.5
7/22/22 72.9 55.6 4.0 23.0 29 14 43.9 13.5
7/21/22 76.8 57.9 2.7 23.1 34 14 47.1 13.5
7/20/22 75.6 60.1 5.4 16.4 55 15 51.5 13.5
7/19/22 72.6 61.0 4.7 23.9 55 39 52.9 13.5
Max 83.9 64.8 9.1 27.7 97 57 56.4 13.5
Avg - - 4.5 - - - 51.3 -
Min 65.4 52.5 2.4 14.9 28 9 43.9 13.5